Weather History for Gillette, WY

Change the Weather History Date:

Saturday, December 3, 2011

  Actual Average Record
Temperature  
Mean Temperature 20 °F 25 °F  
Max Temperature 28 °F 36 °F 63 °F (1941)
Min Temperature 11 °F 15 °F -6 °F (1978)
Degree Days  
Heating Degree Days 45 40  
Month to date heating degree days 127 118  
Since 1 July heating degree days 1772 1993  
Cooling Degree Days 0 0  
Month to date cooling degree days 0 0  
Year to date cooling degree days 561 502  
Moisture  
Dew Point 13 °F    
Average Humidity 71    
Maximum Humidity 92    
Minimum Humidity 50    
Precipitation  
Precipitation 0.00 in 0.02 in 0.27 in (1927)
Month to date precipitation 0.03 0.06  
Year to date precipitation 17.00 13.55  
Sea Level Pressure  
Sea Level Pressure 30.17 in    
Wind  
Wind Speed 9 mph (West)    
Max Wind Speed 14 mph    
Max Gust Speed 18 mph    
Visibility 10 miles    
Events      
T = Trace of Precipitation, MM = Missing Value Source: NWS Daily Summary

Daily Weather History Graph

Daily Weather History Graph

Search for Another Location

Airport:

Trip Planner

Search our weather history database for the weather conditions in past years. The results will help you decide how hot, cold, wet, or windy it might be!

Date:

Astronomy

Dec. 03, 2011 Rise Set
Actual Time 7:19 AM MST 4:23 PM MST
Civil Twilight 6:47 AM MST 4:56 PM MST
Nautical Twilight 6:10 AM MST 5:32 PM MST
Astronomical Twilight 5:35 AM MST 6:07 PM MST
Moon 12:40 PM MST (12/3) 12:38 AM MST (12/3)
Length of Visible Light 10h 09m
Length of Day
9h 03m
Waxing Gibbous, 63% of the Moon is Illuminated
Dec 3
Waxing Gibbous
Dec 10
Full
Dec 17
Last Quarter
Dec 24
New
Dec 31
First Quarter

Hourly Weather History & Observations

Time (MST) Temp. Windchill Dew Point Humidity Pressure Visibility Wind Dir Wind Speed Gust Speed Precip Events Conditions
12:53 AM 19.0 °F 6.8 °F 17.1 °F 92% 30.19 in 10.0 mi WNW 11.5 mph - N/A   Partly Cloudy
1:53 AM 19.9 °F 8.6 °F 17.1 °F 89% 30.19 in 10.0 mi NW 10.4 mph - N/A   Partly Cloudy
2:53 AM 17.1 °F 5.8 °F 14.0 °F 88% 30.22 in 10.0 mi WNW 9.2 mph - N/A   Clear
3:53 AM 18.0 °F 7.7 °F 15.1 °F 88% 30.22 in 10.0 mi WNW 8.1 mph - N/A   Scattered Clouds
4:20 AM 19.4 °F 9.5 °F 15.8 °F 86% 30.10 in 10.0 mi WNW 8.1 mph - N/A   Mostly Cloudy
4:43 AM 17.6 °F 6.4 °F 15.8 °F 93% 30.11 in 10.0 mi WNW 9.2 mph - N/A   Scattered Clouds
4:53 AM 17.1 °F 6.6 °F 15.1 °F 92% 30.25 in 10.0 mi West 8.1 mph - N/A   Partly Cloudy
5:53 AM 15.1 °F 4.2 °F 12.0 °F 88% 30.26 in 10.0 mi West 8.1 mph - N/A   Clear
6:53 AM 12.9 °F 1.6 °F 10.9 °F 92% 30.27 in 10.0 mi WNW 8.1 mph - N/A   Clear
7:53 AM 14.0 °F 3.9 °F 10.9 °F 88% 30.27 in 10.0 mi WSW 6.9 mph - N/A   Clear
8:53 AM 19.0 °F 10.0 °F 15.1 °F 85% 30.27 in 10.0 mi West 6.9 mph - N/A   Clear
9:53 AM 21.9 °F 11.0 °F 15.1 °F 75% 30.26 in 10.0 mi WNW 10.4 mph - N/A   Clear
10:53 AM 24.1 °F 13.1 °F 14.0 °F 65% 30.25 in 10.0 mi WNW 11.5 mph - N/A   Clear
11:53 AM 26.1 °F 15.6 °F 14.0 °F 60% 30.21 in 10.0 mi NW 11.5 mph - N/A   Clear
12:53 PM 26.6 °F 16.8 °F 12.2 °F 55% 30.06 in 10.0 mi NW 10.4 mph - N/A   Clear
1:53 PM 28.0 °F 20.8 °F 12.9 °F 53% 30.15 in 10.0 mi WNW 6.9 mph - N/A   Clear
2:53 PM 27.0 °F 20.5 °F 12.9 °F 56% 30.14 in 10.0 mi WNW 5.8 mph - N/A   Clear
3:53 PM 21.0 °F 14.6 °F 12.9 °F 71% 30.15 in 10.0 mi West 4.6 mph - N/A   Clear
4:53 PM 15.8 °F 7.2 °F 10.4 °F 79% 30.00 in 10.0 mi SW 5.8 mph - N/A   Clear
5:53 PM 16.0 °F 6.3 °F 10.0 °F 77% 30.17 in 10.0 mi SW 6.9 mph - N/A   Clear
6:53 PM 19.0 °F 6.8 °F 10.0 °F 68% 30.17 in 10.0 mi SW 11.5 mph - N/A   Clear
7:53 PM 16.0 °F 5.3 °F 9.0 °F 74% 30.18 in 10.0 mi SW 8.1 mph - N/A   Clear
8:53 PM 19.0 °F 7.5 °F 10.0 °F 68% 30.14 in 10.0 mi SW 10.4 mph - N/A   Clear
9:53 PM 21.0 °F 11.4 °F 10.0 °F 63% 30.11 in 10.0 mi SW 8.1 mph - N/A   Mostly Cloudy
10:53 PM 19.9 °F 9.3 °F 12.9 °F 74% 30.11 in 10.0 mi West 9.2 mph - N/A   Overcast
11:53 PM 19.4 °F 8.6 °F 12.2 °F 74% 29.97 in 10.0 mi West 9.2 mph - N/A   Overcast